[[{"header":{"parameterUnit":"m.s-1","parameterCategory":1,"la1":30.2991,"la2":30.254,"lo1":-89.0895,"lo2":-89.0444,"dy":0.0017,"dx":0.0017,"nx":28,"ny":28,"refTime":"2025-03-19T03:00:00:Z","depth":0,"parameterNumber":2,"parameterNumberName":"U-component_of_WINDS"},"data":[0,0,0,0,0,0,0,0,0,0,0,0,0,0,0,0,0,0,0,0,0,0,0,0,0,0,0,0,0,0,0,0,0,0,0,0,0,0,0,0,0,0,0,0,0,0,0,0,0,0,0,0,0,0,0,0,0,0,-0.8957,-0.8957,0,-0.8955,-0.8955,-0.8955,-0.8955,-0.8955,-0.8955,-0.8955,-0.8953,-0.8953,-0.8952,0,0,0,0,0,0,0,0,0,0,0,0,0,-0.8961,-0.8961,-0.8957,-0.8957,-0.8957,-0.8955,-0.8955,-0.8955,-0.8955,-0.8955,-0.8955,-0.8955,-0.8953,-0.8953,-0.8952,0,0,0,0,0,0,0,0,0,0,0,0,0,-0.8959,-0.8961,-0.8957,-0.8957,-0.8957,-0.8955,-0.8955,-0.8955,-0.8955,-0.8955,-0.8955,-0.8955,-0.8953,-0.8953,-0.8952,-0.8952,0,0,-0.8952,-0.8952,0,0,0,0,0,0,0,0,-0.8959,-0.8959,-0.8957,-0.8957,-0.8957,-0.8955,-0.8956,-0.8954,-0.8955,-0.8955,-0.8955,-0.8955,-0.8953,-0.8953,-0.8953,-0.8952,-0.8952,-0.8952,-0.8952,-0.8952,-0.8952,0,0,0,0,0,0,0,-0.8959,-0.8959,-0.8957,-0.8957,-0.8957,-0.8957,-0.8956,-0.8956,-0.8954,-0.8955,-0.8955,-0.8955,-0.8953,-0.8953,-0.8953,-0.8952,-0.8952,-0.8952,-0.8952,-0.8952,-0.895,-0.895,0,0,0,0,0,0,-0.8959,-0.8959,-0.8957,-0.8957,-0.8958,-0.8957,-0.8956,-0.8956,-0.8954,-0.8954,-0.8955,-0.8955,-0.8953,-0.8953,-0.8953,-0.8952,-0.8952,-0.8952,-0.8952,-0.895,-0.895,-0.895,0,0,0,0,0,0,-0.896,-0.8959,-0.8957,-0.8958,-0.8958,-0.8957,-0.8956,-0.8956,-0.8955,-0.8954,-0.8954,-0.8955,-0.8953,-0.8953,-0.8952,-0.8952,-0.8952,-0.8952,-0.895,-0.895,-0.895,-0.8951,0,0,0,0,0,0,-0.896,-0.8959,-0.8959,-0.8958,-0.8957,-0.8956,-0.8956,-0.8956,-0.8955,-0.8955,-0.8954,-0.8954,-0.8953,-0.8952,-0.8952,-0.8952,-0.8952,-0.895,-0.895,-0.895,-0.8951,-0.8951,-0.8951,0,0,0,0,0,-0.896,-0.8959,-0.8959,-0.8959,-0.8957,-0.8956,-0.8956,-0.8955,-0.8955,-0.8955,-0.8954,-0.8954,-0.8952,-0.8952,-0.8952,-0.8952,-0.895,-0.895,-0.895,-0.8951,-0.8951,-0.8951,0,0,0,0,0,0,-0.896,-0.8959,-0.8959,-0.8958,-0.8957,-0.8956,-0.8955,-0.8955,-0.8955,-0.8954,-0.8954,-0.8953,-0.8953,-0.8952,-0.8952,-0.8952,-0.8951,-0.8951,-0.8952,-0.8952,-0.8952,-0.8952,-0.8952,0,0,0,0,0,-0.896,-0.8959,-0.8958,-0.8957,-0.8957,-0.8956,-0.8956,-0.8956,-0.8955,-0.8955,-0.8954,-0.8953,-0.8953,-0.8952,-0.8952,-0.8951,-0.8951,-0.8951,-0.8951,-0.8951,-0.8951,-0.8951,-0.8951,-0.895,-0.895,-0.895,0,0,-0.896,-0.8959,-0.8959,-0.8958,-0.8957,-0.8956,-0.8956,-0.8955,-0.8955,-0.8954,-0.8954,-0.8953,-0.8953,-0.8952,-0.8952,-0.8952,-0.8951,-0.8951,-0.8951,-0.8951,-0.8951,-0.8951,-0.8951,-0.895,-0.895,-0.895,0,0,-0.8959,-0.8958,-0.8958,-0.8957,-0.8957,-0.8956,-0.8956,-0.8955,-0.8955,-0.8954,-0.8954,-0.8954,-0.8953,-0.8952,-0.8952,-0.8952,-0.8952,-0.8952,-0.8952,-0.8952,-0.8952,-0.8952,-0.8952,-0.8953,-0.8952,-0.8952,-0.8952,0,-0.8959,-0.8958,-0.8958,-0.8957,-0.8957,-0.8956,-0.8956,-0.8956,-0.8955,-0.8955,-0.8954,-0.8953,-0.8953,-0.8952,-0.8952,-0.8952,-0.8952,-0.8952,-0.8952,-0.8952,-0.8952,-0.8953,-0.8953,-0.8952,-0.8952,-0.8952,-0.8952,0,-0.8958,-0.8958,-0.8957,-0.8957,-0.8956,-0.8956,-0.8955,-0.8955,-0.8955,-0.8955,-0.8954,-0.8954,-0.8953,-0.8953,-0.8953,-0.8953,-0.8953,-0.8952,-0.8952,-0.8952,-0.8953,-0.8953,-0.8952,-0.8952,-0.8952,-0.8952,0,0,-0.8957,-0.8957,-0.8957,-0.8957,-0.8956,-0.8956,-0.8955,-0.8955,-0.8955,-0.8954,-0.8954,-0.8954,-0.8954,-0.8953,-0.8953,-0.8953,-0.8953,-0.8953,-0.8953,-0.8953,-0.8954,-0.8954,-0.8954,-0.8953,-0.8953,-0.8953,-0.8954,0,-0.8957,-0.8956,-0.8956,-0.8956,-0.8955,-0.8955,-0.8955,-0.8955,-0.8955,-0.8954,-0.8954,-0.8954,-0.8954,-0.8954,-0.8954,-0.8953,-0.8954,-0.8953,-0.8953,-0.8953,-0.8954,-0.8954,-0.8954,-0.8955,-0.8954,-0.8954,-0.8954,0,-0.8956,-0.8956,-0.8955,-0.8955,-0.8955,-0.8955,-0.8955,-0.8955,-0.8955,-0.8955,-0.8954,-0.8954,-0.8954,-0.8954,-0.8954,-0.8954,-0.8954,-0.8954,-0.8954,-0.8954,-0.8954,-0.8954,-0.8955,-0.8955,-0.8954,-0.8954,-0.8954,0,-0.8956,-0.8955,-0.8955,-0.8955,-0.8955,-0.8955,-0.8955,-0.8955,-0.8955,-0.8955,-0.8955,-0.8955,-0.8955,-0.8955,-0.8954,-0.8954,-0.8955,-0.8954,-0.8955,-0.8955,-0.8955,-0.8955,-0.8956,-0.8955,-0.8955,-0.8955,-0.8955,0,-0.8955,-0.8955,-0.8955,-0.8955,-0.8955,-0.8955,-0.8955,-0.8955,-0.8955,-0.8955,-0.8955,-0.8955,-0.8955,-0.8955,-0.8955,-0.8955,-0.8955,-0.8955,-0.8955,-0.8955,-0.8955,-0.8955,-0.8955,-0.8955,-0.8955,-0.8955,-0.8955,0,-0.8955,-0.8955,-0.8955,-0.8955,-0.8955,-0.8955,-0.8955,-0.8955,-0.8955,-0.8955,-0.8955,-0.8955,-0.8955,-0.8955,-0.8955,-0.8955,-0.8956,-0.8956,-0.8956,-0.8956,-0.8956,-0.8956,-0.8957,-0.8957,-0.8956,-0.8956,-0.8956,0,-0.8955,-0.8954,-0.8955,-0.8955,-0.8955,-0.8955,-0.8955,-0.8955,-0.8955,-0.8955,-0.8955,-0.8956,-0.8956,-0.8956,-0.8956,-0.8956,-0.8956,-0.8957,-0.8956,-0.8956,-0.8956,-0.8957,-0.8957,-0.8957,-0.8957,-0.8957,-0.8957,0,-0.8954,-0.8954,-0.8954,-0.8955,-0.8955,-0.8955,-0.8955,-0.8955,-0.8955,-0.8955,-0.8956,-0.8956,-0.8956,-0.8957,-0.8957,-0.8957,-0.8957,-0.8957,-0.8957,-0.8957,-0.8957,-0.8957,-0.8956,-0.8957,-0.8957,-0.8957,-0.8957,-0.8957,-0.8954,-0.8954,-0.8954,-0.8955,-0.8955,-0.8955,-0.8955,-0.8955,-0.8956,-0.8956,-0.8956,-0.8956,-0.8957,-0.8957,-0.8957,-0.8958,-0.8958,-0.8958,-0.8958,-0.8958,-0.8958,-0.8957,-0.8958,-0.8958,-0.8958,-0.8958,-0.8958,0,-0.8954,-0.8954,-0.8954,-0.8955,-0.8955,-0.8955,-0.8955,-0.8956,-0.8956,-0.8956,-0.8957,-0.8957,-0.8958,-0.8958,-0.8958,-0.8959,-0.8959,-0.8959,-0.8959,-0.8959,-0.8958,-0.8958,-0.8959,-0.8959,-0.8959,-0.8959,-0.8959,-0.8959,-0.8954,-0.8954,-0.8954,-0.8955,-0.8955,-0.8955,-0.8956,-0.8956,-0.8956,-0.8957,-0.8957,-0.8958,-0.8958,-0.8959,-0.8959,-0.8959,-0.896,-0.896,-0.896,-0.8959,-0.8959,-0.8959,-0.8959,-0.896,-0.896,-0.8961,-0.8961,-0.8961]},{"header":{"parameterUnit":"m.s-1","parameterCategory":1,"la1":30.2991,"la2":30.254,"lo1":-89.0895,"lo2":-89.0444,"dy":0.0017,"dx":0.0017,"nx":28,"ny":28,"refTime":"2025-03-19T03:00:00:Z","depth":0,"parameterNumber":3,"parameterNumberName":"V-component_of_WINDS"},"data":[0,0,0,0,0,0,0,0,0,0,0,0,0,0,0,0,0,0,0,0,0,0,0,0,0,0,0,0,0,0,0,0,0,0,0,0,0,0,0,0,0,0,0,0,0,0,0,0,0,0,0,0,0,0,0,0,0,0,7.4335,7.4336,0,7.4439,7.4441,7.4442,7.4386,7.4383,7.438,7.4378,7.4478,7.4483,7.4489,0,0,0,0,0,0,0,0,0,0,0,0,0,7.4081,7.4086,7.4335,7.4337,7.4338,7.4439,7.4441,7.4442,7.4386,7.4383,7.438,7.4376,7.4476,7.4483,7.4489,0,0,0,0,0,0,0,0,0,0,0,0,0,7.4189,7.4088,7.4335,7.4323,7.4322,7.4439,7.4441,7.4442,7.4387,7.4383,7.4379,7.4375,7.4474,7.4482,7.449,7.4623,0,0,7.4514,7.4518,0,0,0,0,0,0,0,0,7.4183,7.4198,7.4323,7.4324,7.4324,7.4396,7.4388,7.4503,7.4388,7.4362,7.4378,7.4373,7.4454,7.4463,7.4492,7.4627,7.4632,7.4515,7.452,7.4523,7.4525,0,0,0,0,0,0,0,7.4175,7.4193,7.4376,7.4325,7.4325,7.4309,7.432,7.4409,7.443,7.4364,7.4361,7.4374,7.4453,7.4484,7.4493,7.4633,7.4515,7.4522,7.4526,7.453,7.488,7.4884,0,0,0,0,0,0,7.4169,7.4187,7.4373,7.4379,7.4242,7.4317,7.4329,7.4377,7.4429,7.4433,7.4377,7.4371,7.4473,7.4484,7.4497,7.4653,7.4523,7.453,7.4535,7.4875,7.4881,7.4886,0,0,0,0,0,0,7.4164,7.4187,7.4369,7.4282,7.4304,7.4326,7.438,7.4381,7.4412,7.4439,7.4442,7.4406,7.447,7.4486,7.4591,7.4656,7.4534,7.4541,7.487,7.4877,7.4883,7.497,0,0,0,0,0,0,7.4157,7.4185,7.4238,7.4284,7.4309,7.4464,7.4384,7.4386,7.4426,7.4419,7.4466,7.447,7.4468,7.458,7.4599,7.4665,7.4547,7.4864,7.4873,7.4881,7.4961,7.4978,7.4993,0,0,0,0,0,7.4148,7.4257,7.4241,7.4263,7.4376,7.4468,7.4482,7.4479,7.4432,7.4483,7.45,7.4469,7.4647,7.4591,7.4613,7.4682,7.486,7.487,7.488,7.4954,7.4975,7.4993,0,0,0,0,0,0,7.4216,7.4263,7.4245,7.4373,7.4417,7.4459,7.4524,7.4502,7.4559,7.4549,7.4541,7.4552,7.4662,7.4682,7.462,7.4811,7.4745,7.476,7.4794,7.4814,7.483,7.4822,7.4554,0,0,0,0,0,7.4246,7.432,7.4356,7.4465,7.4488,7.4502,7.4542,7.4536,7.4581,7.4598,7.4623,7.4666,7.4731,7.4774,7.4836,7.4964,7.4972,7.5022,7.5038,7.5051,7.5063,7.513,7.5152,7.4919,7.4919,7.4919,0,0,7.4309,7.4343,7.439,7.4479,7.4513,7.4586,7.4518,7.4599,7.4653,7.461,7.4711,7.4731,7.4778,7.4895,7.4948,7.4915,7.513,7.5064,7.5074,7.508,7.5143,7.5165,7.5184,7.4926,7.4925,7.4924,0,0,7.4459,7.4495,7.4588,7.4623,7.4675,7.4683,7.4706,7.4751,7.4762,7.4865,7.4833,7.4895,7.5009,7.5043,7.5075,7.5236,7.5208,7.5257,7.5341,7.5406,7.5424,7.544,7.5495,7.5516,7.5269,7.527,7.527,0,7.453,7.4642,7.4638,7.4722,7.476,7.4727,7.4819,7.4853,7.4921,7.4948,7.4911,7.5051,7.508,7.5203,7.5243,7.5271,7.5294,7.5251,7.5422,7.5438,7.5453,7.5506,7.5527,7.5275,7.5274,7.5274,7.5273,0,7.4724,7.4802,7.487,7.4939,7.4986,7.5073,7.508,7.5128,7.5117,7.5128,7.5231,7.5265,7.5332,7.5361,7.5351,7.5482,7.546,7.5423,7.5356,7.5481,7.553,7.555,7.5283,7.5281,7.5279,7.5278,0,0,7.492,7.4986,7.5011,7.504,7.5095,7.5153,7.5238,7.5305,7.5344,7.5392,7.5461,7.5557,7.5523,7.5559,7.5552,7.561,7.5732,7.5565,7.5566,7.5593,7.5875,7.5901,7.5925,7.5714,7.5718,7.5721,7.5871,0,7.5073,7.5224,7.5222,7.536,7.543,7.5398,7.5471,7.5511,7.5523,7.5582,7.5595,7.5663,7.5614,7.5635,7.5691,7.5706,7.5788,7.5695,7.5775,7.5778,7.5763,7.5951,7.5979,7.6119,7.589,7.5893,7.5896,0,7.5272,7.5327,7.5473,7.5515,7.5544,7.561,7.567,7.5728,7.5771,7.5776,7.5816,7.58,7.5882,7.5815,7.5927,7.5864,7.5896,7.5908,7.5914,7.5919,7.5843,7.596,7.6164,7.6184,7.5926,7.5924,7.5922,0,7.5397,7.5509,7.5609,7.5636,7.5688,7.5735,7.5758,7.5798,7.5837,7.5889,7.5914,7.5974,7.6006,7.6052,7.6051,7.6002,7.6164,7.6097,7.6168,7.6168,7.6202,7.6199,7.6412,7.6226,7.6226,7.6226,7.6225,0,7.5567,7.5657,7.5666,7.5728,7.5826,7.5823,7.5919,7.5938,7.5973,7.6035,7.6011,7.607,7.6066,7.6125,7.6125,7.6216,7.6232,7.6236,7.6234,7.6237,7.6236,7.6257,7.6246,7.6231,7.623,7.6229,7.6228,0,7.5724,7.5735,7.5842,7.5882,7.5894,7.5965,7.5998,7.6055,7.6065,7.6145,7.6163,7.6178,7.6246,7.625,7.6328,7.6328,7.6438,7.6427,7.6424,7.6422,7.6492,7.6484,7.6723,7.6753,7.655,7.6552,7.6554,0,7.5831,7.5899,7.5947,7.5988,7.6014,7.6081,7.6121,7.6119,7.6161,7.6215,7.6265,7.6331,7.6383,7.6492,7.6508,7.6567,7.6556,7.6635,7.6564,7.6564,7.6554,7.6549,7.6555,7.6649,7.6651,7.6653,7.6654,0,7.6018,7.602,7.608,7.6142,7.6191,7.6239,7.6283,7.6318,7.6321,7.6369,7.6439,7.648,7.6559,7.6623,7.6681,7.6701,7.6678,7.6677,7.6696,7.6698,7.6693,7.6695,7.646,7.6671,7.6669,7.6668,7.6667,7.6666,7.6152,7.621,7.6252,7.6319,7.6353,7.6395,7.645,7.6467,7.6526,7.6592,7.6586,7.6663,7.6701,7.6776,7.6801,7.6859,7.6832,7.686,7.6867,7.6873,7.688,7.6686,7.687,7.6869,7.6869,7.6868,7.6868,0,7.6336,7.6362,7.6423,7.6487,7.6539,7.6514,7.6561,7.6606,7.6674,7.6713,7.6765,7.6844,7.6906,7.6927,7.6986,7.7028,7.7019,7.7044,7.704,7.7044,7.6902,7.6879,7.7051,7.7051,7.7051,7.7051,7.705,7.705,7.6438,7.6534,7.6541,7.6652,7.6676,7.6752,7.6781,7.6819,7.6849,7.6939,7.6991,7.7005,7.7036,7.7097,7.7152,7.7156,7.7178,7.7208,7.7207,7.7073,7.7055,7.7037,7.7015,7.7213,7.7213,7.7344,7.7346,7.7346]}]]